Pasco, WA

8:14 PM PDT on April 27, 2017 (GMT -0700)
Tri-Cities

Weather History for KPSC - October, 2012

Change the Weather History Date:

Sunday, October 21, 2012

  Actual Average Record
Temperature  
Mean Temperature 47 °F 50 °F  
Max Temperature 58 °F 63 °F 88 °F (2003)
Min Temperature 35 °F 37 °F 25 °F (1996)
Degree Days  
Heating Degree Days 18 15  
Month to date heating degree days 214 238  
Since 1 July heating degree days 270 349  
Cooling Degree Days 0 0  
Month to date cooling degree days 2 0  
Year to date cooling degree days 788 709  
Moisture  
Dew Point 34 °F    
Average Humidity 59    
Maximum Humidity 85    
Minimum Humidity 33    
Precipitation  
Precipitation 0.00 in 0.02 in 0.64 in (1954)
Month to date precipitation 0.39 0.45  
Year to date precipitation 6.80 6.33  
Snow  
Snow 0.00 in - - ()
Snow Depth 0.00 in    
Sea Level Pressure  
Sea Level Pressure 29.88 in    
Wind  
Wind Speed 3 mph (SSE)    
Max Wind Speed 13 mph    
Max Gust Speed 15 mph    
Visibility 10 miles    
Events      
T = Trace of Precipitation, MM = Missing Value Source: NWS Daily Summary

Daily Weather History Graph

Daily Weather History Graph

Search for Another Location

Airport or City:

Trip Planner

Search our weather history database for the weather conditions in past years. The results will help you decide how hot, cold, wet, or windy it might be!

Date:

Astronomy

Oct. 21, 2012 Rise Set
Actual Time 7:22 AM PDT 5:58 PM PDT
Civil Twilight 6:52 AM PDT 6:29 PM PDT
Nautical Twilight 6:17 AM PDT 7:04 PM PDT
Astronomical Twilight 5:42 AM PDT 7:38 PM PDT
Moon 1:53 PM PDT (10/21) 11:53 PM PDT (10/21)
Length of Visible Light 11h 36m
Length of Day
10h 35m
Waxing Crescent, 46% of the Moon is Illuminated
Oct 21
Waxing Crescent
Oct 21
First Quarter
Oct 29
Full
Nov 6
Last Quarter
Nov 13
New

Hourly Weather History & Observations

Time (PDT) Temp. Windchill Dew Point Humidity Pressure Visibility Wind Dir Wind Speed Gust Speed Precip Events Conditions
12:53 AM 44.1 °F 41.5 °F 35.1 °F 71% 29.91 in 10.0 mi Variable 4.6 mph - N/A   Scattered Clouds
1:53 AM 44.1 °F - 34.0 °F 68% 29.91 in 10.0 mi Calm Calm - N/A   Partly Cloudy
2:53 AM 45.0 °F - 35.1 °F 68% 29.91 in 10.0 mi Calm Calm - N/A   Clear
3:53 AM 41.0 °F 39.0 °F 35.1 °F 79% 29.91 in 10.0 mi South 3.5 mph - N/A   Clear
4:53 AM 37.0 °F 33.3 °F 33.1 °F 86% 29.91 in 10.0 mi North 4.6 mph - N/A   Clear
5:53 AM 37.9 °F 34.4 °F 34.0 °F 86% 29.91 in 10.0 mi SW 4.6 mph - N/A   Clear
6:53 AM 39.9 °F - 34.0 °F 79% 29.91 in 10.0 mi Calm Calm - N/A   Clear
7:53 AM 41.0 °F 38.0 °F 35.1 °F 79% 29.92 in 10.0 mi East 4.6 mph - N/A   Clear
8:53 AM 44.1 °F 40.1 °F 36.0 °F 73% 29.93 in 10.0 mi ESE 6.9 mph - N/A   Clear
9:53 AM 48.0 °F - 36.0 °F 63% 29.93 in 10.0 mi SE 8.1 mph - N/A   Clear
10:53 AM 50.0 °F - 35.1 °F 57% 29.92 in 10.0 mi SSW 8.1 mph - N/A   Overcast
11:53 AM 52.0 °F - 34.0 °F 50% 29.91 in 10.0 mi SSW 5.8 mph - N/A   Overcast
12:53 PM 54.0 °F - 34.0 °F 47% 29.89 in 10.0 mi South 4.6 mph - N/A   Partly Cloudy
1:53 PM 57.0 °F - 34.0 °F 42% 29.87 in 10.0 mi Variable 5.8 mph - N/A   Partly Cloudy
2:53 PM 57.0 °F - 32.0 °F 39% 29.85 in 10.0 mi Variable 4.6 mph - N/A   Scattered Clouds
3:53 PM 57.9 °F - 28.0 °F 32% 29.85 in 10.0 mi SSW 5.8 mph - N/A   Scattered Clouds
4:53 PM 55.9 °F - 28.9 °F 36% 29.84 in 10.0 mi SW 4.6 mph - N/A   Partly Cloudy
5:53 PM 55.0 °F - 30.9 °F 40% 29.84 in 10.0 mi Calm Calm - N/A   Mostly Cloudy
6:53 PM 52.0 °F - 32.0 °F 47% 29.84 in 10.0 mi Calm Calm - N/A   Overcast
7:53 PM 48.9 °F - 36.0 °F 61% 29.83 in 10.0 mi East 4.6 mph - N/A   Overcast
8:53 PM 46.0 °F 44.8 °F 37.0 °F 71% 29.83 in 10.0 mi NNE 3.5 mph - N/A   Overcast
9:53 PM 44.1 °F - 39.0 °F 82% 29.83 in 10.0 mi Calm Calm - N/A   Mostly Cloudy
10:53 PM 42.1 °F - 37.0 °F 82% 29.82 in 10.0 mi Calm Calm - N/A   Overcast
11:53 PM 37.9 °F - 34.0 °F 86% 29.81 in 10.0 mi Calm Calm - N/A   Partly Cloudy